Previsão horária em Abejuela

Hoje, 11 Abril, Domingo

Tempo Temperatura Precipitação Vento Pressão Humidade
00:00 +6°C° 0 mm 1 m/s 646 mmHg 91%
01:00 +6°C° 0 mm 1 m/s 645 mmHg 91%
02:00 +5°C° 0 mm 1 m/s 645 mmHg 91%
03:00 +5°C° 0 mm 1 m/s 645 mmHg 91%
04:00 +5°C° 0 mm 1 m/s 645 mmHg 90%
05:00 +4°C° 0 mm 2 m/s 645 mmHg 90%
06:00 +4°C° 0 mm 2 m/s 645 mmHg 91%
07:00 +6°C° 0 mm 2 m/s 646 mmHg 83%
08:00 +7°C° 0 mm 3 m/s 647 mmHg 75%
09:00 +8°C° 0 mm 4 m/s 647 mmHg 67%
10:00 +9°C° 0 mm 5 m/s 647 mmHg 63%
11:00 +10°C° 0 mm 6 m/s 648 mmHg 60%
12:00 +10°C° 0 mm 7 m/s 648 mmHg 57%
13:00 +10°C° 0.1 mm 7 m/s 648 mmHg 59%
14:00 +9°C° 0.1 mm 7 m/s 647 mmHg 61%
15:00 +9°C° 0.1 mm 6 m/s 647 mmHg 63%
16:00 +8°C° 0 mm 5 m/s 647 mmHg 64%
17:00 +8°C° 0 mm 5 m/s 648 mmHg 66%
18:00 +7°C° 0 mm 4 m/s 648 mmHg 68%
19:00 +7°C° 0 mm 3 m/s 648 mmHg 71%
20:00 +5°C° 0 mm 3 m/s 649 mmHg 75%
21:00 +4°C° 0 mm 3 m/s 649 mmHg 78%
22:00 +3°C° 0 mm 3 m/s 650 mmHg 77%
23:00 +2°C° 0 mm 3 m/s 650 mmHg 77%

Amanhã, 12 Abril, Segunda-feira

Tempo Temperatura Precipitação Vento Pressão Humidade
00:00 +2°C° 0 mm 3 m/s 650 mmHg 76%
01:00 +1°C° 0 mm 3 m/s 650 mmHg 76%
02:00 -1°C° 0 mm 4 m/s 650 mmHg 77%
03:00 -1°C° 0 mm 4 m/s 650 mmHg 77%
04:00 -2°C° 0 mm 4 m/s 650 mmHg 75%
05:00 -2°C° 0 mm 4 m/s 651 mmHg 73%
06:00 -3°C° 0 mm 4 m/s 651 mmHg 71%
07:00 0°C° 0 mm 3 m/s 651 mmHg 59%
08:00 +2°C° 0 mm 3 m/s 652 mmHg 47%
09:00 +4°C° 0 mm 3 m/s 653 mmHg 34%
10:00 +7°C° 0 mm 3 m/s 653 mmHg 31%
11:00 +9°C° 0 mm 3 m/s 653 mmHg 28%
12:00 +10°C° 0 mm 3 m/s 653 mmHg 24%
13:00 +10°C° 0 mm 3 m/s 653 mmHg 26%
14:00 +11°C° 0 mm 3 m/s 653 mmHg 28%
15:00 +11°C° 0 mm 3 m/s 653 mmHg 30%
16:00 +10°C° 0 mm 3 m/s 653 mmHg 37%
17:00 +8°C° 0 mm 2 m/s 653 mmHg 43%
18:00 +7°C° 0 mm 2 m/s 653 mmHg 50%
19:00 +5°C° 0 mm 2 m/s 653 mmHg 55%
20:00 +5°C° 0 mm 1 m/s 653 mmHg 61%
21:00 +4°C° 0 mm 1 m/s 653 mmHg 67%
22:00 +3°C° 0 mm 1 m/s 653 mmHg 65%
23:00 +3°C° 0 mm 1 m/s 653 mmHg 64%

Depois de amanhã, 13 Abril, Terça-feira

Tempo Temperatura Precipitação Vento Pressão Humidade
00:00 +3°C° 0 mm 1 m/s 653 mmHg 62%
01:00 +3°C° 0 mm 1 m/s 653 mmHg 60%
02:00 +2°C° 0 mm 1 m/s 652 mmHg 58%
03:00 +2°C° 0 mm 1 m/s 652 mmHg 56%
04:00 +2°C° 0 mm 1 m/s 652 mmHg 54%
05:00 +2°C° 0 mm 1 m/s 652 mmHg 52%
06:00 +2°C° 0 mm 1 m/s 652 mmHg 50%
07:00 +5°C° 0 mm 1 m/s 653 mmHg 44%
08:00 +7°C° 0 mm 1 m/s 653 mmHg 38%
09:00 +9°C° 0 mm 1 m/s 654 mmHg 32%
10:00 +11°C° 0 mm 1 m/s 654 mmHg 30%
11:00 +12°C° 0 mm 2 m/s 654 mmHg 29%
12:00 +13°C° 0 mm 2 m/s 654 mmHg 27%
13:00 +13°C° 0 mm 3 m/s 654 mmHg 28%
14:00 +13°C° 0 mm 3 m/s 654 mmHg 30%
15:00 +13°C° 0 mm 4 m/s 653 mmHg 32%
16:00 +12°C° 0 mm 3 m/s 653 mmHg 43%
17:00 +10°C° 0 mm 3 m/s 653 mmHg 54%
18:00 +9°C° 0 mm 3 m/s 652 mmHg 66%
19:00 +7°C° 0 mm 2 m/s 652 mmHg 74%
20:00 +6°C° 0 mm 2 m/s 652 mmHg 82%
21:00 +5°C° 0 mm 1 m/s 652 mmHg 91%
22:00 +5°C° 0 mm 1 m/s 652 mmHg 91%
23:00 +5°C° 0 mm 1 m/s 652 mmHg 91%

14 Abril, Quarta-feira

Tempo Temperatura Precipitação Vento Pressão Humidade
00:00 +3°C° 0 mm 0 m/s 651 mmHg 92%
01:00 +3°C° 0 mm 0 m/s 651 mmHg 91%
02:00 +3°C° 0 mm 0 m/s 651 mmHg 91%
03:00 +3°C° 0 mm 0 m/s 650 mmHg 90%
04:00 +3°C° 0 mm 0 m/s 650 mmHg 90%
05:00 +3°C° 0 mm 0 m/s 650 mmHg 89%
06:00 +4°C° 0 mm 1 m/s 650 mmHg 89%
07:00 +6°C° 0 mm 1 m/s 651 mmHg 79%
08:00 +7°C° 0 mm 1 m/s 651 mmHg 69%
09:00 +8°C° 0 mm 2 m/s 651 mmHg 59%
10:00 +9°C° 0 mm 2 m/s 651 mmHg 55%
11:00 +10°C° 0 mm 3 m/s 651 mmHg 51%
12:00 +11°C° 0 mm 3 m/s 651 mmHg 47%
13:00 +11°C° 0 mm 4 m/s 651 mmHg 47%
14:00 +11°C° 0 mm 4 m/s 651 mmHg 46%
15:00 +11°C° 0 mm 4 m/s 650 mmHg 46%
16:00 +10°C° 0 mm 4 m/s 650 mmHg 52%
17:00 +8°C° 0 mm 3 m/s 650 mmHg 57%
18:00 +7°C° 0 mm 3 m/s 649 mmHg 62%
19:00 +6°C° 0 mm 2 m/s 649 mmHg 67%
20:00 +5°C° 0 mm 2 m/s 649 mmHg 72%
21:00 +6°C° 0 mm 1 m/s 650 mmHg 77%
22:00 +5°C° 0 mm 1 m/s 649 mmHg 79%
23:00 +5°C° 0 mm 1 m/s 649 mmHg 81%

15 Abril, Quinta-feira

Tempo Temperatura Precipitação Vento Pressão Humidade
00:00 +5°C° 0 mm 1 m/s 649 mmHg 83%
01:00 +4°C° 0 mm 1 m/s 649 mmHg 84%
02:00 +4°C° 0 mm 1 m/s 649 mmHg 84%
03:00 +4°C° 0 mm 1 m/s 648 mmHg 85%
04:00 +4°C° 0 mm 1 m/s 648 mmHg 84%
05:00 +4°C° 0 mm 1 m/s 648 mmHg 83%
06:00 +4°C° 0 mm 1 m/s 648 mmHg 82%
07:00 +4°C° 0 mm 2 m/s 648 mmHg 78%
08:00 +4°C° 0 mm 3 m/s 649 mmHg 73%
09:00 +5°C° 0 mm 3 m/s 649 mmHg 69%
10:00 +5°C° 0.1 mm 4 m/s 649 mmHg 70%
11:00 +5°C° 0.1 mm 4 m/s 649 mmHg 72%
12:00 +5°C° 0.1 mm 4 m/s 649 mmHg 74%
13:00 +5°C° 0.1 mm 5 m/s 648 mmHg 73%
14:00 +3°C° 0.1 mm 5 m/s 648 mmHg 73%
15:00 +3°C° 0.1 mm 5 m/s 647 mmHg 72%
16:00 +3°C° 0.1 mm 5 m/s 647 mmHg 75%
17:00 +3°C° 0.1 mm 4 m/s 647 mmHg 79%
18:00 +3°C° 0.1 mm 4 m/s 647 mmHg 82%
19:00 +2°C° 0.2 mm 3 m/s 648 mmHg 83%
20:00 +2°C° 0.2 mm 3 m/s 648 mmHg 85%
21:00 +2°C° 0.2 mm 3 m/s 648 mmHg 86%
22:00 +2°C° 0.1 mm 2 m/s 648 mmHg 85%
23:00 +2°C° 0.1 mm 2 m/s 648 mmHg 84%

16 Abril, Sexta-feira

Tempo Temperatura Precipitação Vento Pressão Humidade
00:00 +3°C° 0.1 mm 1 m/s 647 mmHg 83%
01:00 +3°C° 0 mm 1 m/s 647 mmHg 81%
02:00 +3°C° 0 mm 1 m/s 647 mmHg 79%
03:00 +2°C° 0 mm 1 m/s 646 mmHg 77%
04:00 +2°C° 0 mm 1 m/s 646 mmHg 74%
05:00 +3°C° 0 mm 1 m/s 646 mmHg 71%
06:00 +3°C° 0 mm 1 m/s 646 mmHg 68%
07:00 +3°C° 0 mm 2 m/s 647 mmHg 63%
08:00 +4°C° 0 mm 2 m/s 647 mmHg 57%
09:00 +5°C° 0 mm 2 m/s 647 mmHg 52%
10:00 +5°C° 0 mm 3 m/s 647 mmHg 51%
11:00 +5°C° 0 mm 3 m/s 647 mmHg 49%
12:00 +7°C° 0 mm 3 m/s 647 mmHg 48%
13:00 +7°C° 0.2 mm 3 m/s 647 mmHg 51%
14:00 +7°C° 0.2 mm 3 m/s 647 mmHg 54%
15:00 +5°C° 0.2 mm 3 m/s 646 mmHg 57%
16:00 +4°C° 0.6 mm 3 m/s 646 mmHg 64%
17:00 +4°C° 0.6 mm 2 m/s 646 mmHg 70%
18:00 +3°C° 0.6 mm 2 m/s 646 mmHg 77%
19:00 +3°C° 0.4 mm 2 m/s 647 mmHg 79%
20:00 +3°C° 0.4 mm 1 m/s 647 mmHg 81%
21:00 +3°C° 0.4 mm 1 m/s 647 mmHg 83%
22:00 +3°C° 0.1 mm 1 m/s 647 mmHg 83%
23:00 +1°C° 0.1 mm 2 m/s 647 mmHg 82%
Mostrar mais

Necessitamos do seu Consentimento

A Meteoprog e os seus Fornecedores de Serviços podem armazenar e aceder a dados pessoais como cookies, identificadores do dispositivo ou outras tecnologias semelhantes existentes no seu dispositivo e processar estes dados para personalizar conteúdos e anúncios, assim como funcionalidades nas redes sociais e análise de tráfego.

  • Armazenar e/ou aceder a informações no seu dispositivo

    Os cookies, identificadores do dispositivo ou outras informações podem ser armazenados ou acedidos no seu dispositivo, para os fins acima indicados.

  • Anúncios e conteúdos personalizados, medição de anúncios e conteúdos, dados sobre o público-alvo e desenvolvimento de produtos

    Os anúncios e os conteúdos podem ser personalizados com base num perfil. Podem ser adicionados dados adicionais para uma maior personalização dos anúncios e dos conteúdos. A eficácia dos anúncios e dos conteúdos pode ser medida. Podem ser obtidas informações sobre o público que visualizou os anúncios e os conteúdos. Estes dados podem ser usados para desenvolver ou melhorar sistemas, softwares ou a experiência do utilizador.

Ao clicar em "Eu concordo”, permitirá o uso de cookies, identificadores do dispositivo e web beacons mencionados ou outras tecnologias semelhantes. As configurações do navegador do seu dispositivo podem ser alteradas.

Para certos fins, podem ser invocados interesses legítimos ao invés de consentimento. Pode ler mais informação sobre este assunto na nossa Política de Privacidade e Cookies.